Location: *
(33.3280°N, 35.6119°E)
Time: 13:13:52
(UTC+00:00)

Daily predictions for brighter satellites

Satellite Brightness Start Highest point End
(mag) Time Altitude Azimuth Time Altitude Azimuth Time Altitude Azimuth
CZ-3C R/B 4.1 16:47:57 10° WSW 16:55:14 47° SSE 17:27:00 10° ESE
Cosmos 2333 Rocket 4.0 17:11:17 10° ESE 17:12:36 11° E 17:13:56 10° E
IRIDIUM 114 4.4 17:07:28 10° N 17:12:37 59° E 17:17:44 10° SSE
NOSS 3-1 (C) 3.8 17:10:03 10° S 17:14:48 34° ESE 17:20:00 10° NE
Cosmos 2221 3.6 17:10:53 10° NNW 17:15:07 48° W 17:19:19 10° SSW
Cosmos 2263 Rocket 2.4 17:10:39 10° NNW 17:16:16 59° ENE 17:21:50 10° SSE
In-Cosmos 22 Rocket 4.4 17:13:15 10° SSE 17:18:27 51° E 17:23:48 10° NNE
Cosmos 2151 3.2 17:17:16 10° S 17:21:25 51° E 17:25:35 10° NNE
IRIDIUM 103 4.3 17:16:31 10° N 17:21:44 74° E 17:26:56 10° S
SJ-6B 2.6 17:20:39 10° SSE 17:24:21 78° ENE 17:28:05 10° N
GPS 2-05 Rocket1 3.2 17:22:20 10° SW 17:24:57 31° SSE 17:27:36 10° E
TIMED 4.5 17:26:29 10° SSW 17:30:49 83° ESE 17:35:12 10° NNE
Cosmos 1408 4.1 17:30:35 13° SE 17:32:36 19° E 17:35:15 10° NE
Cosmos 2058 4.0 17:30:17 10° SSW 17:34:21 50° W 17:38:27 10° N
SPOT 3 Rocket 3.8 17:32:31 10° S 17:37:44 75° WSW 17:42:57 10° NNW
Cosmos 1328 Rocket 4.2 17:33:53 10° NNE 17:37:52 35° E 17:41:00 15° SE
Cosmos 1869 3.3 17:36:23 10° N 17:40:20 83° W 17:44:16 10° S
Cosmos 1892 2.7 17:36:35 10° S 17:40:21 61° E 17:44:09 10° NNE
ADEOS Rocket 2.9 17:38:55 10° NNE 17:44:14 50° E 17:49:38 10° S
Cosmos 1340 Rocket 3.0 17:40:25 10° NNW 17:44:29 74° W 17:48:32 10° S
Cosmos 2237 4.1 17:40:41 10° SSW 17:46:20 76° ESE 17:52:01 10° NNE
Cosmos 1500 Rocket 4.4 17:44:51 15° SE 17:47:53 31° E 17:51:49 10° NNE
MTI 4.4 17:46:30 10° NNE 17:49:26 34° E 17:50:56 21° SSE
Resurs 01 Rocket 1.9 17:47:21 16° SSE 17:50:45 52° ENE 17:55:03 10° N
USA 229 DEB 3.7 17:48:18 10° SSW 17:54:50 85° WNW 18:01:37 10° NNE
USA 229 3.7 17:48:25 10° SSW 17:54:56 86° WNW 18:01:44 10° NNE
Timation 1 Rocket 4.3 17:50:37 10° NNW 17:56:37 82° ENE 18:01:20 17° SSE
NOSS 3-1 (A) 3.3 17:53:17 10° S 17:58:24 49° ESE 18:04:03 10° NE
Cosmos 1238 Rocket 4.3 17:52:55 10° S 17:59:32 79° W 18:06:04 10° N
Cosmos 2360 Rocket 2.6 17:56:35 10° SSW 18:02:11 66° WNW 18:07:48 10° NNE
Iridium 4 Rocket 3.7 17:57:14 10° N 18:03:03 69° E 18:07:38 15° S
Cosmos 304 Rocket 4.1 17:58:35 10° NNW 18:03:22 64° WSW 18:07:31 13° S
COSMOS 2428 3.2 17:59:11 10° S 18:04:26 38° ESE 18:09:41 10° NE
SWIFT 4.4 18:03:29 10° SSW 18:05:10 13° S 18:05:10 13° S
Cosmos 1140 Rocket 3.6 18:01:40 10° S 18:06:37 49° ESE 18:11:37 10° NNE
Cosmos 614 Rocket 3.8 18:03:28 10° S 18:08:29 76° ESE 18:13:33 10° NNE
Cosmos 2237 Rocket 4.1 18:10:25 12° E 18:10:25 12° E 18:11:17 10° ENE
SL-08 RB Rocket 3.6 18:05:58 19° SSE 18:09:08 86° ENE 18:13:37 10° N
NOSS 2-3 (E) 4.5 18:09:47 27° ESE 18:09:47 27° ESE 18:13:20 10° NE
CZ-2C R/B 3.1 18:09:18 10° NNE 18:14:05 38° E 18:15:54 29° SE
Cosmos 1954 Rocket 4.3 18:10:58 20° SSE 18:14:09 44° ESE 18:19:07 10° NNE
Nadezhda 4 Rocket 4.1 18:08:59 10° N 18:15:10 59° E 18:18:49 25° SSE
Cosmos 1743 Rocket 3.4 18:13:19 15° S 18:16:52 84° E 18:21:13 10° N
ERS-1 Rocket 4.3 18:17:33 21° E 18:18:41 23° ENE 18:22:34 10° NNE
Cosmos 407 Rocket 3.8 18:16:49 10° SSW 18:22:05 69° WNW 18:27:25 10° NNE
USA 215 4.4 18:18:37 10° NNE 18:24:46 45° NW 18:30:54 10° WSW
Cosmos 1867 3.8 18:21:46 18° S 18:25:27 46° ESE 18:30:39 10° NE
Cosmos 2034 Rocket 4.2 18:19:47 10° SSW 18:25:59 70° W 18:32:17 10° N
ARGOS 4.0 18:23:48 11° S 18:28:50 46° W 18:34:02 10° NNW
Terra 3.9 18:28:45 13° ENE 18:28:57 13° ENE 18:31:10 10° NE
Cosmos 2219 Rocket 2.1 18:24:00 12° S 18:29:06 62° ESE 18:34:42 10° NNE
Cosmos 1825 2.0 18:29:37 41° S 18:30:50 89° W 18:34:37 10° N
CZ-2C R/B 3.0 18:28:15 27° S 18:31:15 86° WSW 18:36:23 10° NNW
Cosmos 1515 Rocket 3.5 18:27:19 10° N 18:31:40 83° W 18:33:18 37° S
Cosmos 1606 3.8 18:29:07 10° NNE 18:31:55 29° ENE 18:31:55 29° ENE
Cosmos 921 Rocket 4.1 18:29:06 10° NNW 18:33:10 41° W 18:35:39 21° SSW
H-2A R/B 3.4 18:29:56 10° SSW 18:34:57 38° W 18:39:56 10° NNW
Meteor 2-11 Rocket 4.3 18:32:36 21° S 18:36:53 81° E 18:42:58 10° N
Cosmos 1092 Rocket 4.0 18:32:32 10° N 18:38:39 58° E 18:40:45 39° SE
Cosmos 1805 Rocket 3.7 18:41:00 51° E 18:41:00 51° E 18:45:11 10° NNE
Cosmos 2084 Rocket 4.1 18:41:24 10° NNW 18:45:29 39° NE 18:45:43 39° ENE
MetOp-B 4.1 18:46:12 40° S 18:48:14 83° WSW 18:53:37 10° NNW
Cosmos 1151 Rocket 4.5 18:45:26 10° NNW 18:49:23 34° W 18:51:50 19° SW
Cosmos 2278 Rocket 3.9 18:48:23 10° NNE 18:52:15 18° ENE 18:53:04 18° ENE
Cosmos 1844 Rocket 2.6 18:47:37 10° NNW 18:53:19 80° ENE 18:54:41 53° SE
NOSS 2-3 (C) 3.4 18:53:57 63° SSW 18:54:39 85° ESE 18:59:23 10° NNE
USA 267 4.3 18:51:44 22° E 18:55:00 35° NE 19:00:48 10° NNW
Cosmos 1634 Rocket 3.9 18:53:01 36° S 18:55:49 83° E 19:02:04 10° N
Cosmos 2333 Rocket 2.3 18:50:24 10° SSW 18:56:06 77° WNW 19:01:48 10° NNE
SL-23 DEB 4.0 18:54:31 10° NW 18:58:04 61° NNW 18:58:04 61° NNW
Thor Agena Rocket 3.3 18:55:15 10° NNE 19:00:18 76° ESE 19:00:59 65° SSE
Spot 2 Rocket 4.2 18:59:34 31° SSW 19:01:34 47° W 19:06:30 10° NNW
IGS 5A 4.0 19:06:11 49° NNE 19:06:11 49° NNE 19:09:33 10° N
USA 81 3.9 19:00:18 10° N 19:05:36 87° E 19:06:20 67° S
Cosmos 2026 Rocket 3.9 18:59:36 10° N 19:05:41 66° E 19:06:42 57° SE
EO 1 Del DPAF 4.2 19:05:14 10° N 19:08:51 43° WNW 19:09:15 42° W
Sich 1 3.4 19:11:27 56° NNE 19:11:27 56° NNE 19:14:51 10° N
Meteor 2-3 Rocket 4.3 19:09:08 24° SSW 19:12:32 56° W 19:18:15 10° N
Cosmos 2142 Rocket 4.4 19:11:02 49° S 19:12:55 88° E 19:19:20 10° N
Cosmos 2195 Rocket 4.4 19:07:04 10° N 19:13:26 89° W 19:14:55 56° S
SPOT 1/Viking Rocket 3.5 19:25:40 75° WSW 19:25:46 76° WSW 19:30:58 10° NNW
Resurs 01 Rocket 4.4 19:26:24 10° WSW 19:27:28 11° W 19:28:31 10° WNW
Cosmos 2180 Rocket 4.3 19:31:04 75° E 19:31:09 75° E 19:37:16 10° N
Cosmos 1655 Rocket 4.2 19:28:34 10° N 19:34:26 56° ENE 19:34:26 56° ENE
Landsat 7 4.4 19:37:16 51° W 19:37:16 51° W 19:41:31 10° NNW
SL-16 R/B 4.0 19:41:49 19° NE 19:41:49 19° NE 19:43:44 10° NE
SPOT 5 3.3 19:40:51 61° WNW 19:40:51 61° WNW 19:45:04 10° NNW
COSMOS 2455 3.3 19:42:30 48° NE 19:42:30 48° NE 19:46:56 10° NNE
ATLAS CENTAUR R/B 3.3 19:38:16 10° N 19:41:03 26° NNE 19:41:03 26° NNE
Cosmos 1980 3.9 19:45:48 66° W 19:46:02 67° WNW 19:51:43 10° NNE
Lacrosse 4 Rocket 4.1 19:50:02 14° NE 19:50:02 14° NE 19:50:40 10° NE
Cosmos 1818 4.1 19:44:05 10° NW 19:48:43 53° W 19:48:43 53° W
Cosmos 2237 Rocket 2.4 19:52:11 64° WNW 19:52:11 64° WNW 19:57:44 10° NNE
Cosmos 1607 4.3 19:48:25 10° NW 19:54:11 51° WSW 19:54:11 51° WSW
ERS-1 Rocket 4.3 19:57:32 33° W 19:57:32 33° W 20:01:45 10° NW
Cosmos 2266 Rocket 4.5 19:51:16 10° N 19:56:31 49° NE 19:56:31 49° NE
Mayak 1.2 19:57:10 10° NNE 19:58:11 17° NNE 19:58:11 17° NNE
Terra 3.1 20:07:38 38° NW 20:07:38 38° NW 20:10:51 10° NNW
DELTA 2 R/B (1) 4.3 20:03:22 10° WNW 20:08:02 51° NNW 20:08:02 51° NNW
Lacrosse 5 rocket 3.7 20:07:54 10° NNW 20:10:20 22° NNE 20:10:20 22° NNE
ATLAS 5 CENTAUR R/B 4.5 20:12:34 10° N 20:16:10 16° NE 20:17:29 15° ENE
Lacrosse 5 3.8 20:12:27 10° NNW 20:15:57 22° NNE 20:15:57 22° NNE
Cosmos 2278 Rocket 3.3 20:31:07 10° NNW 20:34:54 39° NW 20:34:54 39° NW
USA 267 3.7 20:39:04 51° W 20:39:04 51° W 20:44:11 10° NW
ATLAS 2AS CENTAUR R/B 3.9 20:42:32 36° ENE 20:42:32 36° ENE 20:47:37 10° NE
Cosmos 2369 Rocket 4.4 20:55:00 10° NNE 20:58:13 17° NE 20:58:13 17° NE
BREEZE-M DEB (TANK) 4.4 21:03:28 10° NW 21:17:39 54° W 21:17:39 54° W
SL-16 R/B 3.9 21:23:40 28° NW 21:23:40 28° NW 21:27:41 10° N
Lacrosse 4 Rocket 4.5 21:26:18 13° NW 21:26:18 13° NW 21:27:29 10° NNW
SeaSat 1 4.4 21:39:30 10° N 21:41:53 26° N 21:41:53 26° N
Cosmos 1943 Rocket 3.7 21:54:20 10° NNW 21:57:21 32° N 21:57:21 32° N
FALCON 9 R/B 4.2 22:02:03 44° ESE 22:02:03 44° ESE 22:28:26 10° E
ATLAS 5 CENTAUR R/B 3.5 21:55:19 10° NNW 21:58:58 40° NNW 21:58:58 40° NNW
CENTAUR R/B 4.5 21:54:28 10° NNW 22:01:42 33° NE 22:06:48 19° E
NOSS 3-2 (A) 4.2 21:59:44 10° NNW 22:07:30 68° ENE 22:07:30 68° ENE
ATLAS 3B R/B 3.8 22:04:33 10° NNW 22:10:33 34° NE 22:11:38 33° ENE
CZ-2D R/B 4.2 22:18:42 10° NE 22:21:11 19° ENE 22:21:11 19° ENE
ATLAS 2AS CENTAUR R/B 3.9 22:29:56 37° WNW 22:31:07 39° NW 22:38:36 10° NNE
SL-16 R/B 4.0 22:34:35 28° E 22:35:32 29° ENE 22:40:41 10° N
USA 238 DEB 4.5 22:28:42 10° NW 22:33:39 46° NW 22:33:39 46° NW
USA 238 4.5 22:28:47 10° NW 22:33:46 46° NW 22:33:46 46° NW
Atlas Centaur 2 4.3 22:43:14 24° ESE 22:43:14 24° ESE 22:45:58 10° E
Cosmos 2369 Rocket 3.8 22:37:27 10° NNW 22:39:58 27° NW 22:39:58 27° NW
Milstar 3 Cent rocket 4.4 23:24:42 11° ESE 23:24:42 11° ESE 23:24:55 10° ESE
ADEOS II 3.8 23:17:56 10° NE 23:22:01 23° E 23:22:12 23° E
NOSS 3-2 (C) 4.2 23:14:33 10° NW 23:21:28 60° W 23:21:28 60° W
Resurs 1-4 Rocket 2.7 23:17:56 10° NNE 23:21:58 53° NNE 23:21:58 53° NNE
NPP 4.2 23:17:54 10° NNE 23:22:07 56° NNE 23:22:07 56° NNE
Cosmos 2184 Rocket 4.2 23:22:45 10° N 23:28:03 62° NW 23:28:03 62° NW
SJ 16-02 3.0 23:35:32 30° ENE 23:35:32 30° ENE 23:38:19 10° NE
IRS-P3 4.3 23:36:20 10° NNE 23:41:08 69° NE 23:41:08 69° NE
SL-4 R/B 3.6 23:40:42 10° NNW 23:44:59 38° NE 23:48:59 10° ESE
Milstar 3 3.0 23:45:59 52° SE 23:45:59 52° SE 23:51:52 10° E
Cosmos 2181 Rocket 4.5 23:45:28 46° SE 23:46:42 53° E 23:52:42 10° NNE
CZ-4B R/B 4.3 23:49:06 14° ENE 23:49:06 14° ENE 23:50:20 10° NE
